FW2402 Weather Reports


Display with metric or nautical units.
time (UTC)temp
F
wind
direction
speed
MPH
gust
MPH
rain 1hr
in
rain 24hr
in
rain mn
in
humidity
%
barometer
mb
20260510174015 88 142 2.0 6.0 0.00 0.00 0.00 62 1015.0
20260510173516 88 137 1.0 8.0 0.00 0.00 0.00 59 1014.9
20260510173034 88 161 0.0 8.0 0.00 0.00 0.00 58 1014.9
20260510172516 89 275 3.0 12.0 0.00 0.00 0.00 56 1014.9
20260510172016 90 234 2.0 12.0 0.00 0.00 0.00 55 1014.9
20260510171531 91 260 2.0 10.0 0.00 0.00 0.00 55 1014.9
20260510171015 88 271 0.0 5.0 0.00 0.00 0.00 58 1015.0
20260510170517 89 260 2.0 10.0 0.00 0.00 0.00 56 1015.2
20260510170034 90 238 2.0 10.0 0.00 0.00 0.00 56 1015.2
20260510165517 91 252 3.0 10.0 0.00 0.00 0.00 54 1015.4
20260510165017 90 245 2.0 7.0 0.00 0.00 0.00 56 1015.4
20260510164549 90 0 3.0 15.0 0.00 0.00 0.00 57 1015.5
20260510164017 89 0 1.0 15.0 0.00 0.00 0.00 58 1015.4
20260510163516 90 225 6.0 15.0 0.00 0.00 0.00 56 1015.5
20260510163037 90 242 2.0 11.0 0.00 0.00 0.00 56 1015.6
20260510162516 89 216 6.0 11.0 0.00 0.00 0.00 58 1015.7
20260510162016 90 250 1.0 9.0 0.00 0.00 0.00 56 1015.7
20260510161534 90 182 2.0 9.0 0.00 0.00 0.00 56 1015.9
20260510161018 90 259 2.0 8.0 0.00 0.00 0.00 58 1015.8
20260510160516 89 138 3.0 10.0 0.00 0.00 0.00 61 1015.9
20260510160036 89 165 5.0 10.0 0.00 0.00 0.00 60 1015.8
20260510155515 89 267 1.0 9.0 0.00 0.00 0.00 60 1015.8
20260510155016 89 254 3.0 10.0 0.00 0.00 0.00 62 1015.8
20260510154545 88 252 3.0 12.0 0.00 0.00 0.00 62 1015.8
20260510154019 88 202 6.0 12.0 0.00 0.00 0.00 62 1015.8
20260510153517 89 269 2.0 9.0 0.00 0.00 0.00 60 1015.7
20260510153031 90 234 2.0 11.0 0.00 0.00 0.00 59 1015.8
20260510152516 89 147 4.0 11.0 0.00 0.00 0.00 61 1015.7
20260510152017 88 213 5.0 9.0 0.00 0.00 0.00 62 1015.6
20260510151539 89 167 1.0 13.0 0.00 0.00 0.00 62 1015.6
20260510151016 88 293 3.0 13.0 0.00 0.00 0.00 62 1015.8
20260510150518 89 229 3.0 9.0 0.00 0.00 0.00 61 1015.8
20260510150043 87 277 1.0 9.0 0.00 0.00 0.00 65 1015.8
20260510145520 87 191 1.0 9.0 0.00 0.00 0.00 63 1015.7
20260510145019 87 156 1.0 7.0 0.00 0.00 0.00 65 1015.7
20260510144546 87 175 2.0 7.0 0.00 0.00 0.00 66 1015.7
20260510144022 86 165 1.0 6.0 0.00 0.00 0.00 67 1015.8
20260510143520 85 0 1.0 9.0 0.00 0.00 0.00 67 1015.8
20260510143039 85 232 1.0 9.0 0.00 0.00 0.00 66 1015.6
20260510142516 85 223 2.0 9.0 0.00 0.00 0.00 67 1015.6
20260510142019 84 157 1.0 9.0 0.00 0.00 0.00 70 1015.6
20260510141541 84 146 4.0 9.0 0.00 0.00 0.00 69 1015.5
20260510141020 84 115 4.0 9.0 0.00 0.00 0.00 70 1015.6
20260510140520 82 0 4.0 9.0 0.00 0.00 0.00 72 1015.5
20260510140041 82 150 3.0 7.0 0.00 0.00 0.00 73 1015.6
20260510135519 82 128 2.0 7.0 0.00 0.00 0.00 73 1015.7
20260510135019 82 108 3.0 10.0 0.00 0.00 0.00 72 1015.7
20260510134538 82 186 2.0 10.0 0.00 0.00 0.00 73 1015.7
20260510134020 81 138 3.0 8.0 0.00 0.00 0.00 74 1015.5
20260510133519 81 157 2.0 8.0 0.00 0.00 0.00 74 1015.4
20260510133037 80 0 3.0 9.0 0.00 0.00 0.00 75 1015.5
20260510132516 80 264 3.0 9.0 0.00 0.00 0.00 75 1015.5
20260510132016 81 0 1.0 6.0 0.00 0.00 0.00 76 1015.5
20260510131544 80 0 2.0 6.0 0.00 0.00 0.00 77 1015.4
20260510131016 80 151 2.0 6.0 0.00 0.00 0.00 77 1015.4
20260510130520 80 147 1.0 7.0 0.00 0.00 0.00 78 1015.4
20260510130032 79 0 1.0 9.0 0.00 0.00 0.00 80 1015.4
20260510125519 79 173 4.0 9.0 0.00 0.00 0.00 80 1015.4
20260510125019 79 210 2.0 5.0 0.00 0.00 0.00 81 1015.4
20260510124540 78 136 1.0 6.0 0.00 0.00 0.00 83 1015.3
20260510124019 77 145 0.0 6.0 0.00 0.00 0.00 85 1015.3
20260510123520 76 0 0.0 5.0 0.00 0.00 0.00 86 1015.2
20260510123038 76 0 0.0 5.0 0.00 0.00 0.00 87 1015.1
20260510122519 76 0 1.0 6.0 0.00 0.00 0.00 88 1015.1
20260510122019 75 155 2.0 6.0 0.00 0.00 0.00 89 1015.1
20260510121539 75 170 0.0 5.0 0.00 0.00 0.00 90 1015.0
20260510121019 74 165 1.0 4.0 0.00 0.00 0.00 91 1015.0
20260510120518 73 287 0.0 4.0 0.00 0.00 0.00 92 1014.9
20260510120038 73 0 0.0 0.0 0.00 0.00 0.00 93 1015.0
20260510115516 72 0 0.0 0.0 0.00 0.00 0.00 93 1014.8
20260510115017 72 0 0.0 1.0 0.00 0.00 0.00 93 1014.8
20260510114545 72 0 0.0 1.0 0.00 0.00 0.00 93 1014.6
20260510114019 72 0 0.0 2.0 0.00 0.00 0.00 93 1014.4
20260510113515 71 0 0.0 3.0 0.00 0.00 0.00 93 1014.3
20260510113034 71 0 0.0 4.0 0.00 0.00 0.00 93 1014.1
20260510112520 71 140 1.0 4.0 0.00 0.00 0.00 94 1013.9
20260510112016 71 0 1.0 3.0 0.00 0.00 0.00 94 1013.8
20260510111536 71 134 1.0 3.0 0.00 0.00 0.00 94 1013.7
20260510111016 71 0 0.0 2.0 0.00 0.00 0.00 94 1013.8
20260510110516 70 124 0.0 2.0 0.00 0.00 0.00 94 1013.9
20260510110038 70 0 0.0 0.0 0.00 0.00 0.00 94 1013.7
20260510105515 70 0 0.0 0.0 0.00 0.00 0.00 94 1013.7
20260510105019 70 0 0.0 0.0 0.00 0.00 0.00 94 1013.7
20260510104537 70 0 0.0 0.0 0.00 0.00 0.00 93 1013.6
20260510104019 70 0 0.0 0.0 0.00 0.00 0.00 93 1013.6
20260510103518 70 0 0.0 0.0 0.00 0.00 0.00 93 1013.5
20260510103037 70 0 0.0 0.0 0.00 0.00 0.00 93 1013.4
20260510102518 70 0 0.0 0.0 0.00 0.00 0.00 93 1013.4
20260510102020 70 0 0.0 0.0 0.00 0.00 0.00 93 1013.5
20260510101535 70 0 0.0 0.0 0.00 0.00 0.00 93 1013.4
20260510101019 70 0 0.0 0.0 0.00 0.00 0.00 92 1013.3
20260510100516 70 0 0.0 0.0 0.00 0.00 0.00 92 1013.1
20260510100034 71 0 0.0 0.0 0.00 0.00 0.00 92 1013.0
20260510095516 71 0 0.0 0.0 0.00 0.00 0.00 91 1012.9
20260510095017 71 0 0.0 0.0 0.00 0.00 0.00 91 1012.8
20260510094535 72 0 0.0 0.0 0.00 0.00 0.00 91 1012.9
20260510094019 72 0 0.0 1.0 0.00 0.00 0.00 91 1012.8
20260510093519 72 0 0.0 1.0 0.00 0.00 0.00 91 1012.8
20260510093033 72 128 0.0 2.0 0.00 0.00 0.00 91 1012.8
20260510092519 72 128 0.0 3.0 0.00 0.00 0.00 91 1012.8
20260510092017 72 0 1.0 3.0 0.00 0.00 0.00 91 1012.9
20260510091540 72 120 1.0 2.0 0.00 0.00 0.00 91 1012.8
20260510091017 72 127 0.0 0.0 0.00 0.00 0.00 91 1012.7
20260510090517 72 0 0.0 3.0 0.00 0.00 0.00 91 1012.8
20260510090039 72 0 0.0 3.0 0.00 0.00 0.00 91 1012.7
20260510085516 72 127 1.0 3.0 0.00 0.00 0.00 91 1012.7
20260510085017 72 0 0.0 2.0 0.00 0.00 0.00 91 1012.6
20260510084540 72 0 0.0 3.0 0.00 0.00 0.00 91 1012.7
20260510084017 72 0 0.0 4.0 0.00 0.00 0.00 91 1012.5
20260510083520 72 132 0.0 5.0 0.00 0.00 0.00 91 1012.3
20260510083032 72 0 2.0 5.0 0.00 0.00 0.00 91 1012.3
20260510082516 72 186 2.0 5.0 0.00 0.00 0.00 92 1012.2
20260510082016 72 0 1.0 4.0 0.00 0.00 0.00 92 1012.2
20260510081541 72 135 2.0 4.0 0.00 0.00 0.00 92 1012.3
20260510081017 72 110 1.0 4.0 0.00 0.00 0.00 92 1012.1
20260510080518 72 98 1.0 4.0 0.00 0.00 0.00 92 1012.3
20260510080048 72 125 1.0 3.0 0.00 0.00 0.00 92 1012.6
20260510075517 72 107 1.0 4.0 0.00 0.00 0.00 92 1012.5
20260510075017 72 148 1.0 4.0 0.00 0.00 0.00 92 1012.7
20260510074547 72 113 0.0 3.0 0.00 0.00 0.00 92 1012.6
20260510074017 72 138 1.0 4.0 0.00 0.00 0.00 92 1012.7
20260510073517 72 132 1.0 4.0 0.00 0.00 0.00 92 1012.8
20260510073042 72 174 1.0 4.0 0.00 0.00 0.00 92 1012.7
20260510072517 72 138 1.0 4.0 0.00 0.00 0.00 93 1012.7
20260510072020 72 134 2.0 4.0 0.00 0.00 0.00 93 1012.8
20260510071537 72 117 1.0 2.0 0.00 0.00 0.00 93 1012.8
20260510071016 72 117 1.0 2.0 0.00 0.00 0.00 93 1012.8
20260510070517 72 0 0.0 0.0 0.00 0.00 0.00 93 1012.9
20260510070035 72 0 0.0 2.0 0.00 0.00 0.00 93 1013.0
20260510065517 72 0 0.0 2.0 0.00 0.00 0.00 93 1013.1
20260510065017 72 48 0.0 1.0 0.00 0.00 0.00 93 1013.0
20260510064557 72 0 0.0 1.0 0.00 0.00 0.00 93 1013.0
20260510064019 72 0 0.0 1.0 0.00 0.00 0.00 93 1013.0
20260510063517 71 0 0.0 0.0 0.00 0.00 0.00 93 1013.0
20260510063032 72 0 0.0 1.0 0.00 0.00 0.00 93 1013.2
20260510062517 72 0 0.0 1.0 0.00 0.00 0.00 93 1013.3
20260510062017 71 0 0.0 1.0 0.00 0.00 0.00 93 1013.4
20260510061537 71 0 0.0 0.0 0.00 0.00 0.00 93 1013.6
20260510061017 71 0 0.0 0.0 0.00 0.00 0.00 93 1013.6
20260510060517 71 0 0.0 0.0 0.00 0.00 0.00 93 1013.6
20260510060038 71 0 0.0 0.0 0.00 0.00 0.00 93 1013.7
20260510055517 71 0 0.0 0.0 0.00 0.00 0.00 93 1013.8
20260510055017 71 0 0.0 2.0 0.00 0.00 0.00 93 1013.8
20260510054542 71 0 0.0 2.0 0.00 0.00 0.00 93 1013.9
20260510054017 71 0 0.0 2.0 0.00 0.00 0.00 91 1013.8
20260510053522 72 0 0.0 0.0 0.00 0.00 0.00 92 1013.8
20260510053043 72 0 0.0 1.0 0.00 0.00 0.00 93 1013.7
20260510052518 72 0 0.0 1.0 0.00 0.00 0.00 93 1013.8
20260510052018 72 0 0.0 1.0 0.00 0.00 0.00 93 1013.9
20260510051548 72 0 0.0 0.0 0.00 0.00 0.00 92 1013.9
20260510051021 72 0 0.0 0.0 0.00 0.00 0.00 92 1014.0
20260510050517 72 0 0.0 0.0 0.00 0.00 0.00 92 1014.0
20260510050036 72 0 0.0 0.0 0.00 0.00 0.00 92 1014.1
20260510045516 72 0 0.0 0.0 0.00 0.00 0.00 91 1014.1
20260510045018 72 0 0.0 0.0 0.00 0.00 0.00 91 1014.2
20260510044537 73 0 0.0 0.0 0.00 0.00 0.00 91 1014.3
20260510044017 73 0 0.0 0.0 0.00 0.00 0.00 90 1014.3
20260510043517 73 0 0.0 0.0 0.00 0.00 0.00 90 1014.3
20260510043035 74 0 0.0 0.0 0.00 0.00 0.00 90 1014.3
20260510042519 74 0 0.0 0.0 0.00 0.00 0.00 89 1014.4
20260510042019 74 0 0.0 2.0 0.00 0.00 0.00 89 1014.4
20260510041535 75 0 0.0 3.0 0.00 0.00 0.00 88 1014.2
20260510041018 75 25 0.0 3.0 0.00 0.00 0.00 88 1014.3
20260510040517 75 28 1.0 3.0 0.00 0.00 0.00 88 1014.3
20260510040044 75 29 1.0 4.0 0.00 0.00 0.00 88 1014.2
20260510035516 75 87 2.0 6.0 0.00 0.00 0.00 88 1014.1
20260510035020 75 69 2.0 6.0 0.00 0.00 0.00 88 1014.0
20260510034532 75 63 2.0 4.0 0.00 0.00 0.00 88 1014.0
20260510034019 75 59 2.0 5.0 0.00 0.00 0.00 89 1014.1
20260510033516 75 88 2.0 5.0 0.00 0.00 0.00 89 1014.1
20260510033045 74 98 2.0 5.0 0.00 0.00 0.00 89 1014.1
20260510032516 74 94 1.0 3.0 0.00 0.00 0.00 89 1014.1
20260510032017 74 108 0.0 2.0 0.00 0.00 0.00 90 1014.2
20260510031537 74 0 0.0 0.0 0.00 0.00 0.00 89 1014.2
20260510031018 74 0 0.0 1.0 0.00 0.00 0.00 88 1014.3
20260510030518 74 0 0.0 1.0 0.00 0.00 0.00 88 1014.3
20260510030037 75 0 0.0 2.0 0.00 0.00 0.00 88 1014.2
20260510025519 75 0 0.0 3.0 0.00 0.00 0.00 87 1014.1
20260510025020 76 0 0.0 4.0 0.00 0.00 0.00 86 1014.0
20260510024536 76 0 1.0 4.0 0.00 0.00 0.00 87 1014.1
20260510024018 76 82 1.0 4.0 0.00 0.00 0.00 87 1014.1
20260510023520 76 68 1.0 3.0 0.00 0.00 0.00 86 1014.1
20260510023034 76 78 2.0 3.0 0.00 0.00 0.00 86 1014.0
20260510022520 76 72 1.0 4.0 0.00 0.00 0.00 85 1013.9
20260510022017 76 72 1.0 5.0 0.00 0.00 0.00 85 1013.9
20260510021543 76 59 2.0 5.0 0.00 0.00 0.00 84 1013.9
20260510021018 76 77 2.0 5.0 0.00 0.00 0.00 83 1013.8
20260510020516 77 84 2.0 5.0 0.00 0.00 0.00 82 1013.8
20260510020037 77 65 2.0 5.0 0.00 0.00 0.00 82 1013.8
20260510015516 76 49 2.0 4.0 0.00 0.00 0.00 82 1013.7
20260510015016 76 0 0.0 0.0 0.00 0.00 0.00 83 1013.7
20260510014536 76 0 0.0 0.0 0.00 0.00 0.00 82 1013.7
20260510014017 76 0 0.0 0.0 0.00 0.00 0.00 80 1013.6
20260510013517 76 0 0.0 0.0 0.00 0.00 0.00 80 1013.6
20260510013036 77 0 0.0 0.0 0.00 0.00 0.00 78 1013.5
20260510012517 77 0 0.0 0.0 0.00 0.00 0.00 77 1013.4
20260510012017 78 0 0.0 0.0 0.00 0.00 0.00 76 1013.4
20260510011538 78 0 0.0 0.0 0.00 0.00 0.00 75 1013.3
20260510011016 78 0 0.0 0.0 0.00 0.00 0.00 76 1013.2
20260510010516 78 0 0.0 0.0 0.00 0.00 0.00 75 1013.3
20260510010045 79 0 0.0 0.0 0.00 0.00 0.00 75 1013.3
20260510005517 79 0 0.0 0.0 0.00 0.00 0.00 75 1013.1
20260510005020 79 0 0.0 0.0 0.00 0.00 0.00 75 1013.2
20260510004541 79 0 0.0 0.0 0.00 0.00 0.00 74 1013.2
20260510004016 79 0 0.0 2.0 0.00 0.00 0.00 74 1013.0
20260510003516 79 0 0.0 2.0 0.00 0.00 0.00 74 1013.0
20260510003046 79 0 0.0 4.0 0.00 0.00 0.00 74 1012.9
20260510002516 79 0 0.0 7.0 0.00 0.00 0.00 74 1012.8
20260510002016 80 286 2.0 7.0 0.00 0.00 0.00 73 1012.9
20260510001537 80 284 3.0 9.0 0.00 0.00 0.00 73 1012.7
20260510001016 80 310 2.0 9.0 0.00 0.00 0.00 72 1012.6
20260510000516 80 271 3.0 12.0 0.00 0.00 0.00 71 1012.4
20260510000037 81 277 2.0 12.0 0.00 0.00 0.00 70 1012.3
20260509235519 81 288 4.0 12.0 0.00 0.00 0.00 70 1012.3
20260509235017 81 285 4.0 11.0 0.00 0.00 0.00 69 1012.3
20260509234534 81 286 4.0 11.0 0.00 0.00 0.00 69 1012.3
20260509234018 82 273 5.0 11.0 0.00 0.00 0.00 68 1012.3
20260509233516 82 262 4.0 11.0 0.00 0.00 0.00 67 1012.2
20260509233034 83 316 3.0 8.0 0.00 0.00 0.00 67 1012.2
20260509232517 83 285 3.0 11.0 0.00 0.00 0.00 65 1012.0
20260509232019 83 268 3.0 13.0 0.00 0.00 0.00 64 1012.0
20260509231538 83 245 7.0 14.0 0.00 0.00 0.00 63 1011.9
20260509231016 84 269 8.0 16.0 0.00 0.00 0.00 63 1011.8
20260509230516 84 289 9.0 16.0 0.00 0.00 0.00 62 1011.7
20260509230032 84 281 6.0 16.0 0.00 0.00 0.00 61 1011.6
20260509225516 85 269 7.0 14.0 0.00 0.00 0.00 60 1011.6
20260509225019 85 253 8.0 15.0 0.00 0.00 0.00 59 1011.5
20260509224537 86 286 6.0 15.0 0.00 0.00 0.00 59 1011.4
20260509224020 86 269 7.0 15.0 0.00 0.00 0.00 58 1011.2
20260509223520 86 280 5.0 13.0 0.00 0.00 0.00 58 1011.1
20260509223035 86 256 8.0 14.0 0.00 0.00 0.00 58 1011.0
20260509222517 87 261 8.0 14.0 0.00 0.00 0.00 58 1011.0
20260509222016 87 281 6.0 12.0 0.00 0.00 0.00 58 1010.9
20260509221535 87 261 5.0 13.0 0.00 0.00 0.00 57 1010.9
20260509221020 88 263 5.0 13.0 0.00 0.00 0.00 57 1010.9
20260509220519 88 290 6.0 11.0 0.00 0.00 0.00 56 1010.8
20260509220044 88 19 5.0 11.0 0.00 0.00 0.00 57 1010.7
20260509215519 88 272 4.0 11.0 0.00 0.00 0.00 58 1010.7
20260509215020 88 287 6.0 11.0 0.00 0.00 0.00 58 1010.7
20260509214556 88 256 4.0 10.0 0.00 0.00 0.00 58 1010.7
20260509214022 88 275 4.0 10.0 0.00 0.00 0.00 58 1010.6
20260509213516 88 280 5.0 10.0 0.00 0.00 0.00 58 1010.6
20260509213041 88 288 4.0 10.0 0.00 0.00 0.00 57 1010.5
20260509212516 88 281 3.0 10.0 0.00 0.00 0.00 57 1010.4
20260509212017 88 298 5.0 10.0 0.00 0.00 0.00 55 1010.5
20260509211538 90 294 2.0 10.0 0.00 0.00 0.00 55 1010.3
20260509211016 90 265 5.0 12.0 0.00 0.00 0.00 55 1010.3
20260509210516 89 279 6.0 12.0 0.00 0.00 0.00 55 1010.2
20260509210045 89 282 6.0 16.0 0.00 0.00 0.00 55 1010.3
20260509205516 90 81 6.0 16.0 0.00 0.00 0.00 54 1010.2
20260509205016 91 265 9.0 14.0 0.00 0.00 0.00 52 1010.1
20260509204536 90 259 7.0 14.0 0.00 0.00 0.00 53 1010.1
20260509204017 90 279 10.0 14.0 0.00 0.00 0.00 52 1010.2
20260509203518 90 274 5.0 11.0 0.00 0.00 0.00 54 1010.2
20260509203038 91 282 6.0 17.0 0.00 0.00 0.00 51 1010.2
20260509202518 90 298 10.0 17.0 0.00 0.00 0.00 55 1010.1
20260509202023 88 284 9.0 15.0 0.00 0.00 0.00 55 1010.2
20260509201533 89 275 10.0 16.0 0.00 0.00 0.00 56 1010.2
20260509201016 88 248 9.0 18.0 0.00 0.00 0.00 57 1010.3
20260509200516 88 267 13.0 18.0 0.00 0.00 0.00 58 1010.3
20260509200046 87 263 10.0 15.0 0.00 0.00 0.00 59 1010.3
20260509195517 87 261 9.0 15.0 0.00 0.00 0.00 61 1010.3
20260509195016 86 296 6.0 11.0 0.00 0.00 0.00 63 1010.5
20260509194548 86 285 3.0 9.0 0.00 0.00 0.00 63 1010.3
20260509194018 85 323 3.0 9.0 0.00 0.00 0.00 63 1010.6
20260509193520 85 268 3.0 11.0 0.00 0.00 0.00 63 1010.7
20260509193039 84 288 5.0 15.0 0.00 0.00 0.00 63 1010.7
20260509192516 85 306 6.0 15.0 0.00 0.00 0.00 62 1010.8
20260509192016 86 252 7.0 14.0 0.00 0.00 0.00 61 1010.8
20260509191536 88 266 2.0 15.0 0.00 0.00 0.00 56 1011.0
20260509191019 91 298 8.0 15.0 0.00 0.00 0.00 46 1010.8
20260509190517 92 209 6.0 15.0 0.00 0.00 0.00 46 1010.7
20260509190034 93 271 1.0 15.0 0.00 0.00 0.00 46 1010.7
20260509185521 95 257 8.0 15.0 0.00 0.00 0.00 43 1010.6
20260509185018 94 282 6.0 16.0 0.00 0.00 0.00 46 1010.7
20260509184541 92 198 5.0 16.0 0.00 0.00 0.00 49 1010.8
20260509184019 91 246 6.0 12.0 0.00 0.00 0.00 49 1011.1
20260509183517 92 234 6.0 17.0 0.00 0.00 0.00 48 1011.2
20260509183058 92 251 9.0 17.0 0.00 0.00 0.00 48 1011.2
20260509182519 91 269 10.0 16.0 0.00 0.00 0.00 49 1011.2
20260509182020 91 242 7.0 12.0 0.00 0.00 0.00 50 1011.3
20260509181541 92 261 4.0 9.0 0.00 0.00 0.00 48 1011.3
20260509181017 93 248 3.0 10.0 0.00 0.00 0.00 50 1011.4
20260509180523 91 215 5.0 10.0 0.00 0.00 0.00 50 1011.5
20260509180037 92 260 3.0 12.0 0.00 0.00 0.00 49 1011.6
20260509175520 94 235 4.0 12.0 0.00 0.00 0.00 46 1011.6
20260509175016 92 257 4.0 11.0 0.00 0.00 0.00 48 1011.7
20260509174545 93 250 2.0 11.0 0.00 0.00 0.00 47 1011.7